Regional Weather Roundup
Issued by NWS State College, PA

Home | Current Version | Previous Version | Text Only | Print | Product List | Glossary On
Versions: 1 2 3 4 5 6 7 8 9 10 11 12 13 14 15 16 17 18 19 20 21 22 23 24 25 26 27 28 29 30 31 32 33 34 35 36 37 38 39 40 41 42 43 44 45 46 47 48 49 50
000
ASUS41 KCTP 241010
RWRCTP

REGIONAL WEATHER ROUNDUP
NATIONAL WEATHER SERVICE STATE COLLEGE PA
600 AM EDT TUE MAY 24 2016

Note: "fair" indicates few or no clouds below 12,000 feet with no
significant weather and/or obstructions to visibility.

* = STATION THAT DOES NOT REPORT PRECIPITATION /E.G. RAIN...SNOW...ETC/
    THUNDER OR FOG.

PAZ002>004-007>009-013>016-020>023-029>032-241100-
WESTERN PENNSYLVANIA

CITY           SKY/WX    TMP DP  RH WIND       PRES   REMARKS
ERIE           CLEAR     50  44  80 S6        30.02S
MEADVILLE      CLEAR     45  42  89 CALM      30.04R
FRANKLIN*      CLEAR     45  39  81 SW6       30.06S
NEW CASTLE     FAIR      45  44  97 MISG      30.05R FOG
BEAVER COUNTY  NOT AVBL
BUTLER*        CLEAR    N/A N/A N/A CALM      30.07R
PITTSBURGH INT PTCLDY    52  46  80 CALM      30.05R
PITTSBURGH     CLEAR     51  48  89 S7        30.04R
INDIANA*       MOCLDY    50  50 100 CALM      30.08S FOG
LATROBE        MOCLDY    50  50 100 CALM      30.06R
WASHINGTON CO*   N/A     45  43  93 CALM      30.06R VSB 1/2
$$

PAZ004>006-010>012-017>019-024>028-033>037-041-042-045-046-049>053-241100-
CENTRAL PENNSYLVANIA

CITY           SKY/WX    TMP DP  RH WIND       PRES   REMARKS
BRADFORD       CLEAR     42  38  85 CALM      30.04R
DUBOIS         CLEAR     47  42  83 CALM      30.03R
CLEARFIELD     FOG       46  44  93 S3        30.03R VSB 1/4
JOHNSTOWN      PTCLDY    50  43  77 W6        30.04R
ALTOONA        CLEAR     54  46  74 W5        30.02R
STATE COLLEGE  CLEAR     52  48  87 CALM      30.00R
WILLIAMSPORT   CLEAR     53  48  83 W13       29.95R
SELINSGROVE    PTCLDY    49  48  97 CALM      29.95R FOG
FT INDIANTOWN  CLOUDY    63  47  55 VRB6      29.91R
CAPITAL CITY   MOCLDY    57  50  77 W6        29.94R
HARRISBURG     MOCLDY    58  51  78 NW9       29.92R
YORK           PTCLDY    53  50  89 CALM      29.93R
$$

PAZ038>040-043-044-047-048-054-055-060>062-067>071-241100-
EASTERN PENNSYLVANIA

CITY           SKY/WX    TMP DP  RH WIND       PRES   REMARKS
SCRANTON       CLOUDY    55  46  71 CALM      29.94R
MOUNT POCONO   PTCLDY    48  42  80 NW7       29.93R
ALLENTOWN      PTCLDY    55  52  89 CALM      29.91R
QUAKERTOWN*    SUNNY     54  54 100 CALM      29.92R
READING        CLEAR     56  52  86 NW6       29.90R
LANCASTER      MOCLDY    55  52  89 W7        29.91R
COATESVILLE      N/A    N/A N/A N/A MISG        N/A
POTTSTOWN      PTCLDY    53  52  96 CALM      29.92R FOG
BLUE BELL      MOCLDY    50  50 100 CALM      29.90S VSB<1/4
DOYLESTOWN     CLOUDY    53  53 100 CALM      29.90S FOG
WILLOW GROVE   NOT AVBL
NORTH PHILA    CLOUDY    56  55  97 CALM      29.92R FOG
PHILADELPHIA   MOCLDY    56  53  90 E3        29.92R
$$



USA.gov is the U.S. government's official web portal to all federal, state and local government web resources and services.